Hourly Data Report for October 18, 2016

All times are specified in Local Standard Time (LST). Add 1 hour to adjust for Daylight Saving Time where and when it is observed.

PETAWAWA AWOS 2
ONTARIO

45°57'00.000" N
77°19'00.000" W
130.10 m
6106396
71625
YWA

Download Data

Hourly Data (October 2016)
Hourly Data Report for October 18, 2016
Temp Definition
°C
Dew Point Temp Definition
°C
Rel Hum Definition
%
Wind Dir Definition
10's deg

Wind Spd Definition
km/h
Visibility Definition
km
Stn Press Definition
kPa
Hmdx Definition


Wind Chill Definition


Weather Definition


TIME
00:00 11.2 9.0 86 15 20 14.5 99.15     Rain
01:00 10.0 9.6 97 15 19 14.5 99.10     Rain
02:00 10.2 9.8 97 14 22 14.5 99.03     LegendNANA
03:00 9.9 9.3 96 13 24 14.5 98.89     LegendNANA
04:00 9.6 9.5 99 13 20 14.5 98.78     LegendNANA
05:00 9.7 9.7 100 14 22 8.0 98.69     LegendNANA
06:00 10.0 10.0 100 13 24 2.3 98.61     LegendNANA
07:00 10.5 10.5 100 13 24 1.3 98.55     LegendNANA
08:00 11.5 11.5 100 14 17 4.0 98.48     LegendNANA
09:00 12.9 12.9 100 13 20 8.0 98.38     LegendNANA
10:00 15.8 15.0 95 12 17 14.5 98.27     LegendNANA
11:00 18.4 16.8 90 13 17 14.5 98.14     LegendNANA
12:00 21.6 18.1 80 22 15 14.5 98.06 28   LegendNANA
13:00 21.1 18.6 86 20 11 14.5 98.01 28   LegendNANA
14:00 21.6 18.9 85 22 15 14.5 98.05 28   Rain
15:00 21.7 19.3 86 22 19 14.5 98.10 29   LegendNANA
16:00 22.3 18.7 80 24 19 14.5 98.12 29   LegendNANA
17:00 19.1 16.9 87 30 19 14.5 98.35     LegendNANA
18:00 18.0 16.1 89 28 11 14.5 98.53     LegendNANA
19:00 16.1 13.4 84 31 15 14.5 98.76     LegendNANA
20:00 14.4 12.9 91 28 6 14.5 98.89     LegendNANA
21:00 13.1 11.6 91 29 9 14.5 99.00     LegendNANA
22:00 10.8 10.4 97 28 6 14.5 99.08     LegendNANA
23:00 11.3 11.0 98 30 6 14.5 99.14     LegendNANA

Notes on Data Quality.

Legend

  • E = Estimated
  • M = Missing
  • NA = Not Available
  • ‡ = Partner data that is not subject to review by the National Climate Archives
Date modified: